Weather History for Port Huron, MI

Change the Weather History Date:

Monday, November 4, 2013

  Actual Average (KMTC) Record (KMTC)
Temperature  
Mean Temperature 36 °F -  
Max Temperature 44 °F 50 °F 71 °F (2005)
Min Temperature 28 °F 36 °F 18 °F (1951)
Degree Days  
Heating Degree Days 29    
Moisture  
Dew Point 29 °F    
Average Humidity 70    
Maximum Humidity 93    
Minimum Humidity 53    
Precipitation  
Precipitation 0.00 in - - ()
Sea Level Pressure  
Sea Level Pressure 30.44 in    
Wind  
Wind Speed 7 mph (SE)    
Max Wind Speed 17 mph    
Max Gust Speed 23 mph    
Visibility 10 miles    
Events      
Averages and records for this station are not official NWS values.
T = Trace of Precipitation, MM = Missing Value Source: NWS Daily Summary

Daily Weather History Graph

Daily Weather History Graph

Search for Another Location

Airport:

Trip Planner

Search our weather history database for the weather conditions in past years. The results will help you decide how hot, cold, wet, or windy it might be!

Date:

Astronomy

Nov. 04, 2013 Rise Set
Actual Time 7:08 AM EST 5:18 PM EST
Civil Twilight 6:38 AM EST 5:47 PM EST
Nautical Twilight 6:05 AM EST 6:21 PM EST
Astronomical Twilight 5:32 AM EST 6:54 PM EST
Moon 8:19 AM EST (11/4) 6:20 PM EST (11/4)
Length of Visible Light 11h 09m
Length of Day
10h 09m
New Moon, 2% of the Moon is Illuminated
Nov 4
New Moon
Nov 10
First Quarter
Nov 17
Full
Nov 25
Last Quarter
Dec 2
New

Hourly Weather History & Observations

Time (EST) Temp. Windchill Dew Point Humidity Pressure Visibility Wind Dir Wind Speed Gust Speed Precip Events Conditions
12:16 AM 32.0 °F 25.6 °F 26.6 °F 80% 30.49 in 10.0 mi ESE 6.9 mph - N/A   Clear
12:36 AM 32.0 °F 27.5 °F 26.6 °F 80% 30.49 in 10.0 mi East 4.6 mph - N/A   Clear
12:56 AM 32.0 °F 26.4 °F 26.6 °F 80% 30.49 in 10.0 mi ESE 5.8 mph - N/A   Clear
1:16 AM 32.0 °F 26.4 °F 24.8 °F 75% 30.50 in 10.0 mi ESE 5.8 mph - N/A   Clear
1:36 AM 32.0 °F 25.6 °F 24.8 °F 75% 30.50 in 10.0 mi ESE 6.9 mph - N/A   Clear
1:56 AM 32.0 °F 25.6 °F 24.8 °F 75% 30.49 in 10.0 mi ESE 6.9 mph - N/A   Clear
2:16 AM 32.0 °F 27.5 °F 24.8 °F 75% 30.49 in 10.0 mi ESE 4.6 mph - N/A   Clear
2:36 AM 30.2 °F 26.7 °F 24.8 °F 80% 30.49 in 10.0 mi East 3.5 mph - N/A   Clear
2:56 AM 30.2 °F 25.4 °F 23.0 °F 75% 30.49 in 10.0 mi East 4.6 mph - N/A   Clear
3:16 AM 28.4 °F 22.2 °F 23.0 °F 80% 30.49 in 10.0 mi East 5.8 mph - N/A   Clear
3:36 AM 28.4 °F 22.2 °F 23.0 °F 80% 30.49 in 10.0 mi East 5.8 mph - N/A   Clear
3:56 AM 30.2 °F 24.3 °F 23.0 °F 75% 30.49 in 10.0 mi East 5.8 mph - N/A   Clear
4:16 AM 30.2 °F 26.7 °F 23.0 °F 75% 30.49 in 10.0 mi East 3.5 mph - N/A   Clear
4:36 AM 28.4 °F - 23.0 °F 80% 30.49 in 10.0 mi Calm Calm - N/A   Clear
4:56 AM 30.2 °F 24.3 °F 23.0 °F 75% 30.50 in 10.0 mi ESE 5.8 mph - N/A   Clear
5:16 AM 30.2 °F 22.6 °F 23.0 °F 75% 30.50 in 10.0 mi ESE 8.1 mph - N/A   Clear
5:36 AM 30.2 °F 24.3 °F 24.8 °F 80% 30.50 in 10.0 mi ESE 5.8 mph - N/A   Clear
5:56 AM 30.2 °F 25.4 °F 24.8 °F 80% 30.51 in 10.0 mi ESE 4.6 mph - N/A   Clear
6:16 AM 30.2 °F 25.4 °F 26.6 °F 86% 30.51 in 10.0 mi ESE 4.6 mph - N/A   Clear
6:36 AM 30.2 °F 25.4 °F 26.6 °F 86% 30.50 in 10.0 mi ESE 4.6 mph - N/A   Clear
6:56 AM 30.2 °F 25.4 °F 26.6 °F 86% 30.50 in 10.0 mi SE 4.6 mph - N/A   Clear
7:16 AM 30.2 °F 25.4 °F 26.6 °F 86% 30.50 in 10.0 mi ESE 4.6 mph - N/A   Clear
7:36 AM 30.2 °F - 28.4 °F 93% 30.50 in 10.0 mi Calm Calm - N/A   Clear
7:56 AM 32.0 °F 27.5 °F 28.4 °F 87% 30.50 in 10.0 mi ESE 4.6 mph - N/A   Clear
8:16 AM 32.0 °F 27.5 °F 30.2 °F 93% 30.51 in 10.0 mi SE 4.6 mph - N/A   Clear
8:36 AM 33.8 °F 27.0 °F 30.2 °F 87% 30.51 in 10.0 mi SE 8.1 mph - N/A   Clear
8:56 AM 33.8 °F 27.7 °F 30.2 °F 87% 30.51 in 10.0 mi SE 6.9 mph - N/A   Clear
9:16 AM 35.6 °F 29.2 °F 30.2 °F 81% 30.50 in 10.0 mi SE 8.1 mph 16.1 mph N/A   Clear
9:36 AM 37.4 °F 30.8 °F 30.2 °F 75% 30.50 in 10.0 mi SE 9.2 mph - N/A   Clear
9:56 AM 37.4 °F 30.8 °F 30.2 °F 75% 30.49 in 10.0 mi SE 9.2 mph - N/A   Clear
10:16 AM 41.0 °F 33.9 °F 30.2 °F 65% 30.49 in 10.0 mi SE 12.7 mph 20.7 mph N/A   Clear
10:36 AM 42.8 °F 35.1 °F 30.2 °F 61% 30.49 in 10.0 mi SE 16.1 mph 23.0 mph N/A   Clear
10:56 AM 42.8 °F 35.8 °F 30.2 °F 61% 30.49 in 10.0 mi SE 13.8 mph 21.9 mph N/A   Clear
11:16 AM 42.8 °F 36.2 °F 30.2 °F 61% 30.49 in 10.0 mi SE 12.7 mph 20.7 mph N/A   Clear
11:36 AM 42.8 °F 36.2 °F 30.2 °F 61% 30.48 in 10.0 mi SE 12.7 mph 19.6 mph N/A   Clear
11:56 AM 42.8 °F 35.1 °F 30.2 °F 61% 30.48 in 10.0 mi SE 16.1 mph 20.7 mph N/A   Clear
12:16 PM 44.6 °F 38.1 °F 28.4 °F 53% 30.48 in 10.0 mi SSE 13.8 mph 20.7 mph N/A   Clear
12:36 PM 44.6 °F 37.8 °F 28.4 °F 53% 30.47 in 10.0 mi SSE 15.0 mph - N/A   Clear
12:56 PM 44.6 °F 38.4 °F 28.4 °F 53% 30.45 in 10.0 mi SE 12.7 mph 21.9 mph N/A   Clear
1:16 PM 44.6 °F 38.4 °F 28.4 °F 53% 30.43 in 10.0 mi SE 12.7 mph 21.9 mph N/A   Clear
1:36 PM 44.6 °F 38.4 °F 28.4 °F 53% 30.42 in 10.0 mi SE 12.7 mph 20.7 mph N/A   Clear
1:56 PM 44.6 °F 37.2 °F 28.4 °F 53% 30.41 in 10.0 mi ESE 17.3 mph 21.9 mph N/A   Clear
2:16 PM 42.8 °F 35.4 °F 28.4 °F 57% 30.41 in 10.0 mi SE 15.0 mph 19.6 mph N/A   Clear
2:36 PM 44.6 °F 39.7 °F 28.4 °F 53% 30.41 in 10.0 mi SSE 9.2 mph 17.3 mph N/A   Clear
2:56 PM 44.6 °F 40.2 °F 28.4 °F 53% 30.42 in 10.0 mi SE 8.1 mph 16.1 mph N/A   Clear
3:16 PM 44.6 °F 38.1 °F 28.4 °F 53% 30.40 in 10.0 mi SE 13.8 mph 18.4 mph N/A   Clear
3:36 PM 44.6 °F 39.2 °F 28.4 °F 53% 30.39 in 10.0 mi SE 10.4 mph 17.3 mph N/A   Clear
3:56 PM 42.8 °F 38.0 °F 28.4 °F 57% 30.39 in 10.0 mi SE 8.1 mph 18.4 mph N/A   Clear
4:16 PM 42.8 °F 37.5 °F 28.4 °F 57% 30.39 in 10.0 mi SE 9.2 mph - N/A   Clear
4:36 PM 42.8 °F 35.8 °F 28.4 °F 57% 30.37 in 10.0 mi ESE 13.8 mph 17.3 mph N/A   Clear
4:56 PM 42.8 °F 36.2 °F 28.4 °F 57% 30.37 in 10.0 mi SE 12.7 mph 17.3 mph N/A   Clear
5:16 PM 41.0 °F 33.9 °F 30.2 °F 65% 30.37 in 10.0 mi SE 12.7 mph 16.1 mph N/A   Clear
5:36 PM 41.0 °F 34.7 °F 30.2 °F 65% 30.38 in 10.0 mi SE 10.4 mph 18.4 mph N/A   Clear
5:56 PM 41.0 °F 36.4 °F 30.2 °F 65% 30.39 in 10.0 mi SSE 6.9 mph - N/A   Clear
6:16 PM 41.0 °F 35.2 °F 30.2 °F 65% 30.38 in 10.0 mi SSE 9.2 mph - N/A   Clear
6:36 PM 41.0 °F 35.8 °F 30.2 °F 65% 30.36 in 10.0 mi SE 8.1 mph 16.1 mph N/A   Clear
6:56 PM 41.0 °F 35.8 °F 30.2 °F 65% 30.36 in 10.0 mi SSE 8.1 mph - N/A   Clear
7:16 PM 41.0 °F 34.7 °F 30.2 °F 65% 30.36 in 10.0 mi SE 10.4 mph - N/A   Clear
7:36 PM 41.0 °F 35.2 °F 30.2 °F 65% 30.36 in 10.0 mi SE 9.2 mph - N/A   Clear
7:56 PM 41.0 °F 36.4 °F 30.2 °F 65% 30.36 in 10.0 mi SSE 6.9 mph - N/A   Clear
8:16 PM 41.0 °F 37.1 °F 32.0 °F 70% 30.34 in 10.0 mi SE 5.8 mph - N/A   Clear
8:36 PM 41.0 °F 35.8 °F 32.0 °F 70% 30.35 in 10.0 mi SSE 8.1 mph - N/A   Clear
8:56 PM 41.0 °F 35.8 °F 32.0 °F 70% 30.34 in 10.0 mi SE 8.1 mph - N/A   Clear
9:16 PM 41.0 °F 38.0 °F 32.0 °F 70% 30.33 in 10.0 mi SSE 4.6 mph - N/A   Clear
9:36 PM 41.0 °F 37.1 °F 32.0 °F 70% 30.34 in 10.0 mi SSE 5.8 mph - N/A   Clear
9:56 PM 41.0 °F 36.4 °F 32.0 °F 70% 30.32 in 10.0 mi SSE 6.9 mph - N/A   Clear
10:16 PM 41.0 °F 37.1 °F 33.8 °F 76% 30.34 in 10.0 mi South 5.8 mph - N/A   Clear
10:36 PM 41.0 °F 36.4 °F 33.8 °F 76% 30.34 in 10.0 mi SSE 6.9 mph - N/A   Clear
10:56 PM 41.0 °F 37.1 °F 33.8 °F 76% 30.33 in 10.0 mi South 5.8 mph - N/A   Clear
11:16 PM 41.0 °F 36.4 °F 33.8 °F 76% 30.32 in 10.0 mi SSE 6.9 mph - N/A   Clear
11:36 PM 42.8 °F 38.6 °F 35.6 °F 76% 30.32 in 10.0 mi South 6.9 mph - N/A   Clear
11:56 PM 42.8 °F 38.0 °F 35.6 °F 76% 30.32 in 10.0 mi SSE 8.1 mph - N/A   Scattered Clouds